Skip Page Navigation
NASA JPL Caltech
NASA Logo - Jet Propulsion Laboratory + View the NASA Portal
+ Center for Near-Earth Object Studies
JPL Home Earth Solar System Stars & Galaxies Technology
JPL Solar System Dynamics
BODIES ORBITS EPHEMERIDES TOOLS PHYSICAL DATA DISCOVERY FAQ SITE MAP
IMPORTANT: The SSD Announcement email list is now available. Major changes are coming in the near future, including possible hostname and/or URL changes. To be notified of such changes, subscribe to this email list.

Please visit this page for more details.


JPL Small-Body Database Browser
Search: [ help ]  
27125 Siyilee (1998 WZ20)
Classification: Main-belt Asteroid          SPK-ID: 2027125
Ephemeris | Orbit Diagram | Orbital Elements | Mission Design | Physical Parameters | Discovery Circumstances | Close-Approach Data ]

[ show orbit diagram ]
Orbital Elements at Epoch 2458600.5 (2019-Apr-27.0) TDB
Reference: JPL 14 (heliocentric ecliptic J2000)
 Element Value Uncertainty (1-sigma)   Units 
e .1706330975148617 4.182e-08  
a 2.24758883696713 7.0636e-09 au
q 1.864075791775603 9.5254e-08 au
i 2.244757684530668 4.3142e-06 deg
node 290.6447935759684 0.00012419 deg
peri 104.0571468161398 0.00012498 deg
M 37.60127893689437 1.3281e-05 deg
tp 2458471.949478552339
(2018-Dec-19.44947855)
4.5273e-05 TDB
period 1230.761001476198
3.37
5.8019e-06
1.588e-08
d
yr
n .2925019557559991 1.3789e-09 deg/d
Q 2.631101882158657 8.2689e-09 au
  Orbit Determination Parameters
   # obs. used (total)      869  
   data-arc span      9990 days (27.35 yr)  
   first obs. used      1991-09-15  
   last obs. used      2019-01-21  
   planetary ephem.      DE431  
   SB-pert. ephem.      SB431-N16  
   condition code      0  
   norm. resid. RMS      .54303  
   source      ORB  
   producer      Otto Matic  
   solution date      2019-Jul-13 01:01:50  

Additional Information
 Earth MOID = .871553 au 
 Jupiter MOID = 2.79369 au 
 T_jup = 3.609 
[ show covariance matrix ]

Ephemeris | Orbit Diagram | Orbital Elements | Mission Design | Physical Parameters | Discovery Circumstances | Close-Approach Data ]

Physical Parameter Table
Parameter Symbol Value Units Sigma Reference Notes
absolute magnitude H 15.5   n/a MPO459046  

27125 Siyilee           Discovered 1998 Nov. 18 by the Lincoln Laboratory Near-Earth Asteroid Research Team at Socorro.
Si-Yi Ryan Lee (b. 1992) was a finalist in the 2010 Intel Science Talent Search, a science competition for high-school seniors, for his biochemistry project. He attends the North Carolina School Of Science And Mathematics, Durham, North Carolina, U.S.A.
NOTE: some special characters may not display properly (any characters within {} are an attempt to place the proper accent above a character)
Reference: 20110319/MPCPages.arcLast Updated: 2011-03-23

[ show close-approach data ]
Alternate Designations
 1998 WZ20 = 1991 RK21 
Ephemeris | Orbit Diagram | Orbital Elements | Mission Design | Physical Parameters | Discovery Circumstances | Close-Approach Data ]
ABOUT SSD CREDITS/AWARDS PRIVACY/COPYRIGHT GLOSSARY LINKS
FirstGov 2019-Dec-15 05:32 UT
(server date/time)  
NASA Home Page
Site Manager:   Ryan S. Park
Webmaster  Alan B. Chamberlin